| time (UTC) | temp F | wind direction | speed MPH | gust MPH | rain 1hr in | rain 24hr in | rain mn in | humidity % | barometer mb |
| 20260505225630 | 53 | 79 | 0.0 | 1.0 | 0.00 | 0.59 | 0.59 | 65 | 1006.9 |
| 20260505224629 | 51 | 121 | 0.0 | 2.0 | 0.00 | 0.59 | 0.59 | 71 | 1006.9 |
| 20260505223629 | 51 | 117 | 0.0 | 4.0 | 0.00 | 0.59 | 0.59 | 70 | 1007.0 |
| 20260505222651 | 50 | 109 | 0.0 | 6.0 | 0.00 | 0.59 | 0.59 | 76 | 1007.2 |
| 20260505221630 | 50 | 103 | 1.0 | 3.0 | 0.00 | 0.59 | 0.59 | 76 | 1007.1 |
| 20260505220632 | 50 | 114 | 2.0 | 6.0 | 0.00 | 0.59 | 0.59 | 73 | 1007.3 |
| 20260505215648 | 50 | 103 | 2.0 | 4.0 | 0.00 | 0.59 | 0.59 | 74 | 1007.5 |
| 20260505214626 | 49 | 116 | 3.0 | 6.0 | 0.00 | 0.59 | 0.59 | 74 | 1007.7 |
| 20260505213628 | 49 | 115 | 3.0 | 7.0 | 0.00 | 0.59 | 0.59 | 74 | 1007.9 |
| 20260505212647 | 49 | 113 | 1.0 | 4.0 | 0.00 | 0.59 | 0.59 | 75 | 1008.2 |
| 20260505211625 | 48 | 115 | 1.0 | 7.0 | 0.00 | 0.59 | 0.59 | 74 | 1008.4 |
| 20260505210624 | 48 | 112 | 1.0 | 6.0 | 0.00 | 0.59 | 0.59 | 75 | 1008.4 |
| 20260505205625 | 48 | 115 | 1.0 | 3.0 | 0.00 | 0.59 | 0.59 | 76 | 1008.6 |
| 20260505204629 | 47 | 112 | 1.0 | 7.0 | 0.00 | 0.59 | 0.59 | 75 | 1008.8 |
| 20260505203629 | 47 | 115 | 2.0 | 6.0 | 0.00 | 0.59 | 0.59 | 76 | 1008.9 |
| 20260505202629 | 47 | 113 | 3.0 | 7.0 | 0.00 | 0.59 | 0.59 | 76 | 1009.2 |
| 20260505201626 | 46 | 114 | 2.0 | 10.0 | 0.00 | 0.59 | 0.59 | 78 | 1009.2 |
| 20260505200623 | 46 | 123 | 4.0 | 12.0 | 0.00 | 0.59 | 0.59 | 78 | 1009.2 |
| 20260505195627 | 46 | 112 | 3.0 | 11.0 | 0.00 | 0.59 | 0.59 | 78 | 1009.4 |
| 20260505194625 | 45 | 112 | 3.0 | 15.0 | 0.00 | 0.59 | 0.59 | 78 | 1009.4 |
| 20260505193623 | 45 | 117 | 6.0 | 15.0 | 0.00 | 0.59 | 0.59 | 79 | 1009.6 |
| 20260505192623 | 44 | 131 | 1.0 | 15.0 | 0.00 | 0.59 | 0.59 | 80 | 1009.8 |
| 20260505191627 | 44 | 114 | 12.0 | 16.0 | 0.00 | 0.59 | 0.59 | 81 | 1009.9 |
| 20260505190625 | 44 | 136 | 12.0 | 18.0 | 0.00 | 0.59 | 0.59 | 82 | 1009.9 |
| 20260505185623 | 44 | 117 | 12.0 | 15.0 | 0.00 | 0.59 | 0.59 | 80 | 1010.1 |
| 20260505184641 | 44 | 126 | 9.0 | 12.0 | 0.00 | 0.59 | 0.59 | 79 | 1010.0 |
| 20260505183617 | 44 | 131 | 5.0 | 13.0 | 0.00 | 0.59 | 0.59 | 80 | 1010.1 |
| 20260505182631 | 43 | 119 | 4.0 | 11.0 | 0.00 | 0.59 | 0.59 | 81 | 1010.2 |
| 20260505181624 | 42 | 130 | 7.0 | 11.0 | 0.00 | 0.59 | 0.59 | 82 | 1010.3 |
| 20260505180631 | 42 | 137 | 8.0 | 12.0 | 0.00 | 0.59 | 0.59 | 82 | 1010.4 |
| 20260505175651 | 42 | 135 | 6.0 | 15.0 | 0.00 | 0.59 | 0.59 | 82 | 1010.5 |
| 20260505174627 | 41 | 152 | 5.0 | 9.0 | 0.00 | 0.59 | 0.59 | 83 | 1010.5 |
| 20260505173645 | 41 | 145 | 3.0 | 14.0 | 0.00 | 0.59 | 0.59 | 84 | 1010.7 |
| 20260505172622 | 41 | 124 | 7.0 | 16.0 | 0.00 | 0.59 | 0.59 | 83 | 1010.7 |
| 20260505171627 | 41 | 150 | 7.0 | 13.0 | 0.00 | 0.59 | 0.59 | 85 | 1010.6 |
| 20260505170625 | 40 | 156 | 3.0 | 12.0 | 0.00 | 0.59 | 0.59 | 86 | 1010.5 |
| 20260505165640 | 40 | 174 | 6.0 | 15.0 | 0.01 | 0.59 | 0.59 | 87 | 1010.4 |
| 20260505164617 | 40 | 183 | 7.0 | 13.0 | 0.02 | 0.59 | 0.59 | 84 | 1010.5 |
| 20260505163655 | 41 | 177 | 2.0 | 10.0 | 0.05 | 0.59 | 0.59 | 83 | 1010.5 |
| 20260505162632 | 40 | 179 | 1.0 | 6.0 | 0.09 | 0.59 | 0.59 | 84 | 1010.4 |
| 20260505161634 | 40 | 191 | 0.0 | 2.0 | 0.12 | 0.59 | 0.59 | 87 | 1010.5 |
| 20260505160632 | 40 | 210 | 0.0 | 0.0 | 0.14 | 0.59 | 0.59 | 87 | 1010.4 |
| 20260505152627 | 41 | 275 | 0.0 | 0.0 | 0.10 | 0.50 | 0.50 | 87 | 1010.6 |
| 20260505151626 | 41 | 276 | 0.0 | 0.0 | 0.08 | 0.47 | 0.47 | 88 | 1010.7 |
| 20260505150624 | 41 | 313 | 0.0 | 0.0 | 0.06 | 0.44 | 0.44 | 87 | 1010.6 |
| 20260505140644 | 44 | 115 | 0.0 | 0.0 | 0.12 | 0.38 | 0.38 | 88 | 1010.0 |
| 20260505124623 | 45 | 179 | 0.0 | 0.0 | 0.00 | 0.24 | 0.24 | 87 | 1008.8 |
| 20260505123621 | 46 | 179 | 0.0 | 1.0 | 0.02 | 0.24 | 0.24 | 85 | 1008.7 |
| 20260505122621 | 45 | 134 | 0.0 | 1.0 | 0.04 | 0.24 | 0.24 | 85 | 1008.6 |
| 20260505121618 | 45 | 115 | 0.0 | 0.0 | 0.05 | 0.24 | 0.24 | 85 | 1008.7 |
| 20260505120617 | 45 | 55 | 0.0 | 0.0 | 0.05 | 0.24 | 0.24 | 87 | 1008.8 |
| 20260505115634 | 45 | 355 | 0.0 | 0.0 | 0.06 | 0.24 | 0.24 | 88 | 1008.9 |
| 20260505114630 | 45 | 279 | 0.0 | 1.0 | 0.06 | 0.24 | 0.24 | 87 | 1008.8 |
| 20260505113628 | 45 | 286 | 0.0 | 0.0 | 0.04 | 0.22 | 0.22 | 86 | 1008.6 |
| 20260505112624 | 45 | 227 | 0.0 | 0.0 | 0.02 | 0.20 | 0.20 | 85 | 1008.6 |
| 20260505111624 | 45 | 223 | 0.0 | 0.0 | 0.01 | 0.19 | 0.19 | 86 | 1008.5 |
| 20260505110646 | 45 | 230 | 0.0 | 0.0 | 0.02 | 0.19 | 0.19 | 86 | 1008.6 |
| 20260505101617 | 46 | 210 | 0.0 | 0.0 | 0.16 | 0.18 | 0.18 | 85 | 1009.0 |
| 20260505100636 | 47 | 182 | 0.0 | 2.0 | 0.15 | 0.17 | 0.17 | 84 | 1009.1 |
| 20260505095634 | 47 | 170 | 0.0 | 3.0 | 0.14 | 0.16 | 0.16 | 82 | 1009.1 |
| 20260505094632 | 48 | 128 | 0.0 | 1.0 | 0.04 | 0.06 | 0.06 | 81 | 1009.1 |
| 20260505093630 | 48 | 109 | 0.0 | 0.0 | 0.02 | 0.04 | 0.04 | 80 | 1009.4 |
| 20260505092631 | 49 | 80 | 0.0 | 6.0 | 0.01 | 0.03 | 0.03 | 78 | 1009.2 |
| 20260505091620 | 50 | 73 | 2.0 | 11.0 | 0.00 | 0.02 | 0.02 | 75 | 1009.0 |
| 20260505090631 | 51 | 75 | 2.0 | 6.0 | 0.00 | 0.02 | 0.02 | 69 | 1008.8 |
| 20260505085630 | 51 | 88 | 0.0 | 1.0 | 0.00 | 0.02 | 0.02 | 66 | 1008.6 |
| 20260505084629 | 52 | 186 | 0.0 | 1.0 | 0.00 | 0.02 | 0.02 | 61 | 1008.5 |
| 20260505083633 | 52 | 155 | 0.0 | 1.0 | 0.00 | 0.02 | 0.02 | 61 | 1008.4 |
| 20260505082631 | 52 | 161 | 0.0 | 3.0 | 0.02 | 0.02 | 0.02 | 62 | 1008.3 |
| 20260505081632 | 51 | 191 | 0.0 | 3.0 | 0.02 | 0.02 | 0.02 | 63 | 1008.2 |
| 20260505080651 | 51 | 215 | 1.0 | 8.0 | 0.02 | 0.02 | 0.02 | 67 | 1008.2 |
| 20260505075630 | 52 | 159 | 2.0 | 7.0 | 0.02 | 0.02 | 0.02 | 63 | 1008.2 |
| 20260505074634 | 53 | 130 | 1.0 | 8.0 | 0.02 | 0.02 | 0.02 | 60 | 1008.3 |
| 20260505073633 | 51 | 131 | 3.0 | 12.0 | 0.02 | 0.02 | 0.02 | 59 | 1007.9 |
| 20260505072631 | 50 | 231 | 0.0 | 0.0 | 0.00 | 0.00 | 0.00 | 60 | 1008.0 |
| 20260505071628 | 51 | 192 | 0.0 | 1.0 | 0.00 | 0.00 | 0.00 | 66 | 1007.9 |
| 20260505070628 | 51 | 129 | 0.0 | 0.0 | 0.00 | 0.00 | 0.00 | 64 | 1007.8 |
| 20260505065630 | 50 | 215 | 0.0 | 0.0 | 0.00 | 0.00 | 0.00 | 67 | 1007.8 |
| 20260505064631 | 50 | 284 | 0.0 | 0.0 | 0.00 | 0.00 | 0.00 | 55 | 1007.8 |
| 20260505063628 | 50 | 261 | 0.0 | 0.0 | 0.00 | 0.00 | 0.00 | 55 | 1007.7 |
| 20260505062627 | 50 | 266 | 0.0 | 0.0 | 0.00 | 0.00 | 0.00 | 54 | 1007.6 |
| 20260505061623 | 50 | 262 | 0.0 | 0.0 | 0.00 | 0.00 | 0.00 | 54 | 1007.7 |
| 20260505060629 | 52 | 269 | 0.0 | 0.0 | 0.00 | 0.00 | 0.00 | 53 | 1007.8 |
| 20260505055632 | 53 | 298 | 0.0 | 0.0 | 0.00 | 0.00 | 0.00 | 52 | 1007.9 |
| 20260505054631 | 54 | 312 | 0.0 | 0.0 | 0.00 | 0.00 | 0.00 | 52 | 1007.8 |
| 20260505053629 | 53 | 291 | 0.0 | 0.0 | 0.00 | 0.00 | 0.00 | 53 | 1007.7 |
| 20260505052629 | 54 | 250 | 0.0 | 0.0 | 0.00 | 0.00 | 0.00 | 52 | 1007.8 |
| 20260505051630 | 55 | 38 | 0.0 | 0.0 | 0.00 | 0.00 | 0.00 | 60 | 1007.7 |
| 20260505050628 | 55 | 37 | 0.0 | 5.0 | 0.00 | 0.00 | 0.00 | 57 | 1007.8 |
| 20260505041628 | 54 | 223 | 0.0 | 0.0 | 0.00 | 0.00 | 0.00 | 53 | 1007.1 |
| 20260505040626 | 54 | 223 | 0.0 | 0.0 | 0.00 | 0.00 | 0.00 | 55 | 1007.1 |
| 20260505035628 | 54 | 224 | 0.0 | 0.0 | 0.00 | 0.00 | 0.00 | 56 | 1007.1 |
| 20260505034646 | 53 | 247 | 0.0 | 0.0 | 0.00 | 0.00 | 0.00 | 50 | 1007.1 |
| 20260505033627 | 52 | 247 | 0.0 | 0.0 | 0.00 | 0.00 | 0.00 | 54 | 1006.9 |
| 20260505032625 | 52 | 248 | 0.0 | 0.0 | 0.00 | 0.00 | 0.00 | 51 | 1006.9 |
| 20260505031624 | 53 | 257 | 0.0 | 0.0 | 0.00 | 0.00 | 0.00 | 48 | 1006.8 |
| 20260505030625 | 53 | 259 | 0.0 | 0.0 | 0.00 | 0.00 | 0.00 | 49 | 1006.7 |
| 20260505025623 | 55 | 139 | 0.0 | 0.0 | 0.00 | 0.00 | 0.00 | 58 | 1006.6 |
| 20260505024626 | 56 | 138 | 0.0 | 0.0 | 0.00 | 0.00 | 0.00 | 59 | 1006.5 |
| 20260505023620 | 56 | 115 | 0.0 | 0.0 | 0.00 | 0.00 | 0.00 | 53 | 1006.4 |
| 20260505022640 | 56 | 163 | 0.0 | 1.0 | 0.00 | 0.00 | 0.00 | 60 | 1006.4 |
| 20260505021619 | 56 | 152 | 0.0 | 2.0 | 0.00 | 0.00 | 0.00 | 56 | 1006.3 |
| 20260505020621 | 60 | 150 | 0.0 | 2.0 | 0.00 | 0.00 | 0.00 | 46 | 1006.1 |
| 20260505015621 | 63 | 24 | 0.0 | 0.0 | 0.00 | 0.00 | 0.00 | 42 | 1005.9 |
| 20260505014655 | 63 | 24 | 0.0 | 0.0 | 0.00 | 0.00 | 0.00 | 39 | 1005.9 |
| 20260505013633 | 63 | 24 | 0.0 | 0.0 | 0.00 | 0.00 | 0.00 | 45 | 1005.8 |
| 20260505012633 | 62 | 9 | 0.0 | 0.0 | 0.00 | 0.00 | 0.00 | 39 | 1005.8 |
| 20260505011617 | 62 | 342 | 0.0 | 0.0 | 0.00 | 0.00 | 0.00 | 34 | 1005.9 |
| 20260505010616 | 61 | 348 | 0.0 | 7.0 | 0.00 | 0.00 | 0.00 | 34 | 1006.1 |
| 20260505005617 | 61 | 303 | 1.0 | 10.0 | 0.00 | 0.00 | 0.00 | 32 | 1006.0 |
| 20260505004635 | 61 | 318 | 4.0 | 11.0 | 0.00 | 0.00 | 0.00 | 33 | 1006.1 |
| 20260505003633 | 61 | 272 | 4.0 | 26.0 | 0.00 | 0.00 | 0.00 | 36 | 1006.1 |
| 20260505002633 | 62 | 271 | 9.0 | 22.0 | 0.00 | 0.00 | 0.00 | 34 | 1006.1 |
| 20260505001632 | 64 | 311 | 0.0 | 1.0 | 0.00 | 0.00 | 0.00 | 42 | 1005.9 |
| 20260505000625 | 63 | 25 | 0.0 | 3.0 | 0.00 | 0.00 | 0.00 | 40 | 1005.9 |
| 20260504235620 | 63 | 111 | 0.0 | 0.0 | 0.00 | 0.00 | 0.00 | 36 | 1005.8 |
| 20260504234620 | 60 | 112 | 0.0 | 0.0 | 0.00 | 0.00 | 0.00 | 41 | 1005.8 |
| 20260504233621 | 60 | 111 | 0.0 | 0.0 | 0.00 | 0.00 | 0.00 | 53 | 1005.6 |
| 20260504232641 | 60 | 110 | 0.0 | 0.0 | 0.00 | 0.00 | 0.00 | 55 | 1005.7 |
| 20260504231618 | 61 | 112 | 0.0 | 0.0 | 0.00 | 0.00 | 0.00 | 27 | 1005.5 |
| 20260504230656 | 61 | 121 | 0.0 | 0.0 | 0.00 | 0.00 | 0.00 | 29 | 1005.5 |